Weather History for Erie, CO

Change the Weather History Date:

Thursday, November 22, 2012

  Actual Average (KBJC) Record (KBJC)
Temperature  
Mean Temperature 44 °F -  
Max Temperature 58 °F 48 °F 73 °F (1998)
Min Temperature 29 °F 28 °F 3 °F (1985)
Degree Days  
Heating Degree Days 22    
Moisture  
Dew Point 18 °F    
Average Humidity 33    
Maximum Humidity 55    
Minimum Humidity 14    
Precipitation  
Precipitation 0.00 in - - ()
Sea Level Pressure  
Sea Level Pressure 30.15 in    
Wind  
Wind Speed 10 mph (SE)    
Max Wind Speed 21 mph    
Max Gust Speed 28 mph    
Visibility 10 miles    
Events      
Averages and records for this station are not official NWS values.
T = Trace of Precipitation, MM = Missing Value Source: NWS Daily Summary

Daily Weather History Graph

Daily Weather History Graph

Search for Another Location

Airport:

Trip Planner

Search our weather history database for the weather conditions in past years. The results will help you decide how hot, cold, wet, or windy it might be!

Date:

Astronomy

Nov. 22, 2012 Rise Set
Actual Time 6:53 AM MST 4:38 PM MST
Civil Twilight 6:24 AM MST 5:08 PM MST
Nautical Twilight 5:51 AM MST 5:41 PM MST
Astronomical Twilight 5:18 AM MST 6:13 PM MST
Moon 1:25 PM MST (11/22) 1:16 AM MST (11/22)
Length of Visible Light 10h 43m
Length of Day
9h 44m
Waxing Gibbous, 72% of the Moon is Illuminated
Nov 22
Waxing Gibbous
Nov 28
Full
Dec 6
Last Quarter
Dec 13
New
Dec 19
First Quarter

Hourly Weather History & Observations

Time (MST) Temp. Windchill Dew Point Humidity Pressure Visibility Wind Dir Wind Speed Gust Speed Precip Events Conditions
12:14 AM 56.8 °F - 8.2 °F 14% 29.90 in 10.0 mi WSW 12.7 mph - N/A   Clear
12:34 AM 56.5 °F - 8.8 °F 15% 29.90 in 10.0 mi WSW 9.2 mph - N/A   Clear
12:54 AM 51.8 °F - 11.8 °F 20% 29.91 in 10.0 mi East 4.6 mph - N/A   Clear
1:14 AM 51.8 °F - 11.8 °F 20% 29.91 in 10.0 mi South 4.6 mph - N/A   Clear
1:34 AM 51.6 °F - 12.6 °F 21% 29.92 in 10.0 mi West 17.3 mph 20.7 mph N/A   Clear
1:54 AM 57.0 °F - 10.2 °F 16% 29.92 in 10.0 mi WSW 18.4 mph - N/A   Clear
2:14 AM 57.9 °F - 9.5 °F 15% 29.92 in 10.0 mi WSW 15.0 mph 23.0 mph N/A   Clear
2:34 AM 56.8 °F - 10.6 °F 16% 29.92 in 10.0 mi SW 13.8 mph 18.4 mph N/A   Clear
2:54 AM 56.3 °F - 12.0 °F 17% 29.93 in 10.0 mi SSW 11.5 mph - N/A   Clear
3:14 AM 57.7 °F - 10.8 °F 16% 29.93 in 10.0 mi SSW 11.5 mph 17.3 mph N/A   Clear
3:34 AM 58.1 °F - 10.6 °F 15% 29.93 in 10.0 mi South 6.9 mph - N/A   Clear
3:54 AM 55.4 °F - 13.3 °F 19% 29.92 in 10.0 mi South 9.2 mph - N/A   Clear
4:14 AM 53.2 °F - 13.6 °F 21% 29.93 in 10.0 mi North 6.9 mph - N/A   Clear
4:34 AM 54.9 °F - 13.8 °F 20% 29.94 in 10.0 mi SSE 10.4 mph - N/A   Clear
4:54 AM 52.9 °F - 15.6 °F 23% 29.96 in 10.0 mi SSW 9.2 mph - N/A   Clear
5:14 AM 54.7 °F - 15.6 °F 21% 29.96 in 10.0 mi South 8.1 mph - N/A   Clear
5:34 AM 53.2 °F - 16.3 °F 23% 29.96 in 10.0 mi SW 3.5 mph - N/A   Clear
5:54 AM 51.6 °F - 16.7 °F 25% 29.97 in 10.0 mi SW 6.9 mph - N/A   Clear
6:14 AM 50.9 °F - 16.9 °F 26% 29.98 in 10.0 mi SW 5.8 mph - N/A   Clear
6:34 AM 52.5 °F - 16.9 °F 25% 30.00 in 10.0 mi Calm Calm - N/A   Clear
6:54 AM 46.2 °F 43.3 °F 18.0 °F 32% 30.01 in 10.0 mi NE 5.8 mph - N/A   Clear
7:14 AM 49.8 °F - 18.7 °F 29% 30.03 in 10.0 mi West 3.5 mph - N/A   Clear
7:34 AM 45.5 °F 44.2 °F 19.4 °F 35% 30.04 in 10.0 mi WSW 3.5 mph - N/A   Clear
7:54 AM 46.2 °F - 20.8 °F 37% 30.05 in 10.0 mi Calm Calm - N/A   Clear
8:14 AM 48.9 °F - 22.5 °F 35% 30.06 in 10.0 mi Calm Calm - N/A   Clear
8:34 AM 50.2 °F - 23.9 °F 36% 30.07 in 10.0 mi South 5.8 mph - N/A   Clear
8:54 AM 51.1 °F - 21.9 °F 32% 30.08 in 10.0 mi East 10.4 mph - N/A   Clear
9:14 AM 51.1 °F - 22.5 °F 33% 30.10 in 10.0 mi East 12.7 mph - N/A   Clear
9:34 AM 52.0 °F - 23.5 °F 33% 30.10 in 10.0 mi East 6.9 mph - N/A   Clear
9:54 AM 53.1 °F - 23.7 °F 32% 30.10 in 10.0 mi East 9.2 mph - N/A   Clear
10:14 AM 52.5 °F - 26.2 °F 36% 30.10 in 10.0 mi ENE 12.7 mph - N/A   Clear
10:34 AM 55.2 °F - 24.6 °F 31% 30.10 in 10.0 mi ESE 9.2 mph 23.0 mph N/A   Clear
10:54 AM 53.8 °F - 29.5 °F 39% 30.11 in 10.0 mi ESE 10.4 mph 17.3 mph N/A   Clear
11:14 AM 52.5 °F - 30.2 °F 42% 30.12 in 10.0 mi ESE 17.3 mph 26.5 mph N/A   Clear
11:34 AM 51.4 °F - 29.3 °F 43% 30.12 in 10.0 mi East 20.7 mph 27.6 mph N/A   Clear
11:54 AM 51.8 °F - 29.5 °F 42% 30.13 in 10.0 mi East 19.6 mph 26.5 mph N/A   Scattered Clouds
12:14 PM 52.2 °F - 29.7 °F 42% 30.14 in 10.0 mi ESE 19.6 mph 23.0 mph N/A   Clear
12:34 PM 52.2 °F - 28.9 °F 41% 30.15 in 10.0 mi ESE 12.7 mph 19.6 mph N/A   Clear
12:54 PM 53.4 °F - 28.4 °F 38% 30.15 in 10.0 mi East 11.5 mph 17.3 mph N/A   Clear
1:14 PM 53.4 °F - 28.4 °F 38% 30.15 in 10.0 mi ESE 11.5 mph 17.3 mph N/A   Clear
1:34 PM 53.6 °F - 28.2 °F 38% 30.15 in 10.0 mi ESE 12.7 mph 17.3 mph N/A   Clear
1:54 PM 52.7 °F - 27.9 °F 38% 30.16 in 10.0 mi ESE 9.2 mph - N/A   Clear
2:14 PM 52.0 °F - 27.7 °F 39% 30.17 in 10.0 mi ESE 11.5 mph 18.4 mph N/A   Clear
2:34 PM 50.7 °F - 26.8 °F 40% 30.18 in 10.0 mi ESE 10.4 mph - N/A   Clear
2:54 PM 49.6 °F - 26.2 °F 40% 30.19 in 10.0 mi ESE 11.5 mph - N/A   Clear
3:14 PM 49.3 °F - 25.7 °F 40% 30.20 in 10.0 mi ESE 10.4 mph 16.1 mph N/A   Clear
3:34 PM 48.9 °F - 22.3 °F 35% 30.22 in 10.0 mi ESE 11.5 mph 18.4 mph N/A   Clear
3:54 PM 49.1 °F - 21.2 °F 33% 30.23 in 10.0 mi ESE 16.1 mph - N/A   Clear
4:14 PM 47.3 °F - 19.4 °F 33% 30.24 in 10.0 mi ESE 11.5 mph - N/A   Clear
4:34 PM 45.5 °F 40.3 °F 19.0 °F 35% 30.25 in 10.0 mi SE 10.4 mph - N/A   Clear
4:54 PM 44.2 °F 38.8 °F 18.7 °F 36% 30.26 in 10.0 mi SE 10.4 mph - N/A   Clear
5:14 PM 43.2 °F 38.4 °F 18.3 °F 37% 30.28 in 10.0 mi SSE 8.1 mph - N/A   Clear
5:34 PM 43.0 °F 38.2 °F 18.3 °F 37% 30.29 in 10.0 mi South 8.1 mph - N/A   Clear
5:54 PM 42.8 °F 37.0 °F 16.7 °F 35% 30.29 in 10.0 mi South 10.4 mph - N/A   Clear
6:14 PM 43.0 °F 37.2 °F 15.1 °F 32% 30.31 in 10.0 mi South 10.4 mph - N/A   Clear
6:34 PM 43.0 °F 37.7 °F 13.5 °F 30% 30.33 in 10.0 mi SSE 9.2 mph - N/A   Clear
6:54 PM 41.9 °F 36.9 °F 12.9 °F 31% 30.35 in 10.0 mi SSE 8.1 mph - N/A   Clear
7:14 PM 41.2 °F 34.5 °F 12.7 °F 31% 30.35 in 10.0 mi SSE 11.5 mph - N/A   Clear
7:34 PM 41.0 °F 35.2 °F 11.5 °F 30% 30.37 in 10.0 mi SSE 9.2 mph - N/A   Clear
7:54 PM 40.5 °F 35.1 °F 11.3 °F 30% 30.38 in 10.0 mi South 8.1 mph - N/A   Clear
8:14 PM 39.9 °F 35.1 °F 11.3 °F 31% 30.40 in 10.0 mi SSE 6.9 mph - N/A   Clear
8:34 PM 39.4 °F 36.1 °F 10.9 °F 31% 30.41 in 10.0 mi SSE 4.6 mph - N/A   Clear
8:54 PM 38.3 °F 34.8 °F 11.3 °F 33% 30.42 in 10.0 mi South 4.6 mph - N/A   Clear
9:14 PM 35.8 °F 31.9 °F 12.2 °F 38% 30.43 in 10.0 mi SSE 4.6 mph - N/A   Clear
9:34 PM 33.4 °F - 14.4 °F 46% 30.44 in 10.0 mi Calm Calm - N/A   Clear
9:54 PM 31.1 °F - 15.1 °F 52% 30.45 in 10.0 mi Calm Calm - N/A   Clear
10:14 PM 30.2 °F - 14.2 °F 51% 30.45 in 10.0 mi Calm Calm - N/A   Clear
10:34 PM 29.3 °F 24.3 °F 14.0 °F 53% 30.45 in 10.0 mi East 4.6 mph - N/A   Clear
10:54 PM 31.1 °F 24.5 °F 14.7 °F 51% 30.45 in 10.0 mi East 6.9 mph - N/A   Clear
11:14 PM 30.6 °F 23.1 °F 14.9 °F 52% 30.46 in 10.0 mi ESE 8.1 mph - N/A   Clear
11:34 PM 31.3 °F 25.6 °F 14.0 °F 49% 30.47 in 10.0 mi ESE 5.8 mph - N/A   Clear
11:54 PM 29.3 °F 21.5 °F 14.9 °F 55% 30.47 in 10.0 mi ESE 8.1 mph - N/A   Clear